Flag for U.S.A. Weather past 2 weeks in Richmond, Virginia, U.S.A.

Now
94 °F

Broken clouds.


Feels Like: 96 °F
Forecast: 75 / 92 °F
Wind: 13 mph from West

Location: Richmond International Airport

Current Time: Sep 1, 2014 at 3:04:46 PM

Latest Report: Sep 1, 2014 at 1:54 PM


Visibility: 10 mi

Pressure: 30.01 "Hg

Humidity: 38%

Dew point: 65 °F

Location of RichmondLocation

Historic Weather in Richmond — Graph

°F

Richmond temperature yesterday

Maximum temperature yesterday: 93 °F (at 4:54 PM)
Minimum temperature yesterday: 74 °F (at 4:54 AM)
Average temperature yesterday: 82 °F

Past Weeks' High & Low Weather Summary

 TemperatureHumidityPressure
High93 °F (Aug 31, 4:54 PM)94% (Aug 18, 10:54 PM)30.24 "Hg (Aug 18, 10:54 PM)
Low61 °F (Aug 25, 5:54 AM)28% (Aug 28, 4:54 PM)29.77 "Hg (Aug 19, 4:00 AM)
Average77 °F70%30.03 "Hg
* Reported Aug 17 12:54 PM — Sep 1 12:54 PM, Richmond, Weather by CustomWeather, © 2014

Note: Actual official high and low records may vary slightly from our data, if they occured in-between our weather recording intervals... More about our weather records

Advertising

Richmond weather history for previous 24 hours

 ConditionsComfort  
Time TempWeatherWind HumidityBarometerVisibility
12:54 PM
Sep 1
93 °FBroken clouds.14 mph44%30.02 "Hg10 mi
11:54 AM93 °FBroken clouds.15 mph44%30.04 "Hg10 mi
10:54 AM91 °FPartly sunny.9 mph54%30.05 "Hg10 mi
9:54 AM84 °FBroken clouds.8 mph70%30.05 "Hg10 mi
8:54 AM80 °FCloudy.7 mph79%30.06 "Hg10 mi
7:54 AM77 °FCloudy.No wind88%30.08 "Hg10 mi
6:54 AM75 °FOvercast.3 mph90%30.07 "Hg10 mi
5:54 AM75 °FPassing clouds.5 mph90%30.06 "Hg10 mi
4:54 AM76 °FPassing clouds.3 mph88%30.05 "Hg10 mi
3:54 AM78 °FPartly cloudy.5 mph82%30.04 "Hg10 mi
2:54 AM78 °FPassing clouds.7 mph82%30.05 "Hg10 mi
1:54 AM79 °FPartly cloudy.6 mph79%30.05 "Hg10 mi
12:54 AM79 °FMostly cloudy.7 mph77%30.05 "Hg10 mi
11:54 PM
Aug 31
80 °FMostly cloudy.3 mph76%30.06 "Hg10 mi
10:54 PM79 °FHigh level clouds.6 mph79%30.06 "Hg10 mi
9:54 PM80 °FPartly cloudy.5 mph74%30.06 "Hg10 mi
8:54 PM82 °FPassing clouds.6 mph70%30.05 "Hg10 mi
7:54 PM83 °FScattered clouds.5 mph65%30.04 "Hg10 mi
6:54 PM88 °FPartly sunny.16 mph54%30.03 "Hg10 mi
5:54 PM90 °FScattered clouds.13 mph50%30.03 "Hg10 mi
4:54 PM93 °FScattered clouds.10 mph47%30.03 "Hg10 mi
3:54 PM92 °FBroken clouds.16 mph47%30.05 "Hg10 mi
Weather by CustomWeather, © 2014

See weather overviewHow to use our weather pages